Time,TemperatureF,DewpointF,PressureIn,WindDirection,WindDirectionDegrees,WindSpeedMPH,WindSpeedGustMPH,Humidity,HourlyPrecipIn,Conditions,Clouds,dailyrainin,SolarRadiationWatts/m^2,SoftwareType,DateUTC
2013-06-15 00:12:00,43.0,27.0,-100.00,WSW,251,25.0,42.0,53,0.00,,,0.01,0.000000,,2013-06-15 06:12:00,
2013-06-15 00:24:00,43.0,27.0,-100.00,WSW,251,25.0,42.0,53,0.00,,,0.01,0.000000,,2013-06-15 06:24:00,
2013-06-15 00:33:00,43.0,27.0,-100.00,WSW,251,25.0,42.0,53,0.00,,,0.01,0.000000,,2013-06-15 06:33:00,
2013-06-15 00:43:00,43.0,27.0,-100.00,WSW,251,25.0,42.0,53,0.00,,,0.01,0.000000,,2013-06-15 06:43:00,
2013-06-15 00:52:00,43.0,27.0,-100.00,WSW,255,26.0,47.0,53,0.00,,,0.00,0.000000,,2013-06-15 06:52:00,
2013-06-15 01:11:00,43.0,27.0,-100.00,WSW,255,26.0,47.0,53,0.00,,,0.00,0.000000,,2013-06-15 07:11:00,
2013-06-15 01:23:00,43.0,27.0,-100.00,WSW,255,26.0,47.0,53,0.00,,,0.00,0.000000,,2013-06-15 07:23:00,
2013-06-15 01:33:00,43.0,27.0,-100.00,WSW,255,26.0,47.0,53,0.00,,,0.00,0.000000,,2013-06-15 07:33:00,
2013-06-15 01:43:00,43.0,27.0,-100.00,WSW,255,26.0,47.0,53,0.00,,,0.00,0.000000,,2013-06-15 07:43:00,
2013-06-15 01:52:00,42.0,27.0,-100.00,WSW,250,21.0,45.0,56,0.00,,,0.00,0.000000,,2013-06-15 07:52:00,
2013-06-15 02:11:00,42.0,27.0,-100.00,WSW,250,21.0,45.0,56,0.00,,,0.00,0.000000,,2013-06-15 08:11:00,
2013-06-15 02:22:00,42.0,27.0,-100.00,WSW,250,21.0,45.0,56,0.00,,,0.00,0.000000,,2013-06-15 08:22:00,
2013-06-15 02:33:00,42.0,27.0,-100.00,WSW,250,21.0,45.0,56,0.00,,,0.00,0.000000,,2013-06-15 08:33:00,
2013-06-15 02:42:00,42.0,27.0,-100.00,WSW,250,21.0,45.0,56,0.00,,,0.00,0.000000,,2013-06-15 08:42:00,
2013-06-15 02:52:00,40.0,27.0,-100.00,West,263,23.0,45.0,59,0.00,,,0.00,0.000000,,2013-06-15 08:52:00,
2013-06-15 03:12:00,40.0,27.0,-100.00,West,263,23.0,45.0,59,0.00,,,0.00,0.000000,,2013-06-15 09:12:00,
2013-06-15 03:22:00,40.0,27.0,-100.00,West,263,23.0,45.0,59,0.00,,,0.00,0.000000,,2013-06-15 09:22:00,
2013-06-15 03:33:00,40.0,27.0,-100.00,West,263,23.0,45.0,59,0.00,,,0.00,0.000000,,2013-06-15 09:33:00,
2013-06-15 03:43:00,40.0,27.0,-100.00,West,263,23.0,45.0,59,0.00,,,0.00,0.000000,,2013-06-15 09:43:00,
2013-06-15 03:52:00,41.0,28.0,-100.00,WSW,255,21.0,42.0,59,0.00,,,0.00,0.000000,,2013-06-15 09:52:00,
2013-06-15 04:11:00,41.0,28.0,-100.00,WSW,255,21.0,42.0,59,0.00,,,0.00,0.000000,,2013-06-15 10:11:00,
2013-06-15 04:23:00,41.0,28.0,-100.00,WSW,255,21.0,42.0,59,0.00,,,0.00,0.000000,,2013-06-15 10:23:00,
2013-06-15 04:33:00,41.0,28.0,-100.00,WSW,255,21.0,42.0,59,0.00,,,0.00,0.000000,,2013-06-15 10:33:00,
2013-06-15 04:43:00,41.0,28.0,-100.00,WSW,255,21.0,42.0,59,0.00,,,0.00,0.000000,,2013-06-15 10:43:00,
2013-06-15 04:52:00,41.0,28.0,-100.00,West,264,24.0,40.0,60,0.00,,,0.00,0.000000,,2013-06-15 10:52:00,
2013-06-15 05:11:00,41.0,28.0,-100.00,West,264,24.0,40.0,60,0.00,,,0.00,0.000000,,2013-06-15 11:11:00,
2013-06-15 05:22:00,41.0,28.0,-100.00,West,264,24.0,40.0,60,0.00,,,0.00,0.000000,,2013-06-15 11:22:00,
2013-06-15 05:33:00,41.0,28.0,-100.00,West,264,24.0,40.0,60,0.00,,,0.00,0.000000,,2013-06-15 11:33:00,
2013-06-15 05:43:00,41.0,28.0,-100.00,West,264,24.0,40.0,60,0.00,,,0.00,0.000000,,2013-06-15 11:43:00,
2013-06-15 05:52:00,40.0,26.0,-100.00,West,275,26.0,40.0,58,0.00,,,0.00,8.000000,,2013-06-15 11:52:00,
2013-06-15 06:12:00,40.0,26.0,-100.00,West,275,26.0,40.0,58,0.00,,,0.00,8.000000,,2013-06-15 12:12:00,
2013-06-15 06:22:00,40.0,26.0,-100.00,West,275,26.0,40.0,58,0.00,,,0.00,8.000000,,2013-06-15 12:22:00,
2013-06-15 06:33:00,40.0,26.0,-100.00,West,275,26.0,40.0,58,0.00,,,0.00,8.000000,,2013-06-15 12:33:00,
2013-06-15 06:43:00,40.0,26.0,-100.00,West,275,26.0,40.0,58,0.00,,,0.00,8.000000,,2013-06-15 12:43:00,
2013-06-15 06:52:00,42.0,29.0,-100.00,West,263,21.0,39.0,59,0.00,,,0.00,142.000000,,2013-06-15 12:52:00,
2013-06-15 07:11:00,42.0,29.0,-100.00,West,263,21.0,39.0,59,0.00,,,0.00,142.000000,,2013-06-15 13:11:00,
2013-06-15 07:22:00,42.0,29.0,-100.00,West,263,21.0,39.0,59,0.00,,,0.00,142.000000,,2013-06-15 13:22:00,
2013-06-15 07:32:00,42.0,29.0,-100.00,West,263,21.0,39.0,59,0.00,,,0.00,142.000000,,2013-06-15 13:32:00,
2013-06-15 07:43:00,42.0,29.0,-100.00,West,263,21.0,39.0,59,0.00,,,0.00,142.000000,,2013-06-15 13:43:00,
2013-06-15 07:52:00,43.0,29.0,-100.00,WSW,258,17.0,32.0,58,0.00,,,0.00,349.000000,,2013-06-15 13:52:00,
2013-06-15 08:12:00,43.0,29.0,-100.00,WSW,258,17.0,32.0,58,0.00,,,0.00,349.000000,,2013-06-15 14:12:00,
2013-06-15 08:22:00,43.0,29.0,-100.00,WSW,258,17.0,32.0,58,0.00,,,0.00,349.000000,,2013-06-15 14:22:00,
2013-06-15 08:34:00,43.0,29.0,-100.00,WSW,258,17.0,32.0,58,0.00,,,0.00,349.000000,,2013-06-15 14:34:00,
2013-06-15 08:43:00,43.0,29.0,-100.00,WSW,258,17.0,32.0,58,0.00,,,0.00,349.000000,,2013-06-15 14:43:00,
2013-06-15 08:52:00,44.0,29.0,-100.00,West,262,13.0,25.0,55,0.00,,,0.00,567.000000,,2013-06-15 14:52:00,
2013-06-15 09:11:00,44.0,29.0,-100.00,West,262,13.0,25.0,55,0.00,,,0.00,567.000000,,2013-06-15 15:11:00,
2013-06-15 09:22:00,44.0,29.0,-100.00,West,262,13.0,25.0,55,0.00,,,0.00,567.000000,,2013-06-15 15:22:00,
2013-06-15 09:33:00,44.0,29.0,-100.00,West,262,13.0,25.0,55,0.00,,,0.00,567.000000,,2013-06-15 15:33:00,
2013-06-15 09:43:00,44.0,29.0,-100.00,West,262,13.0,25.0,55,0.00,,,0.00,567.000000,,2013-06-15 15:43:00,
2013-06-15 09:52:00,48.0,31.0,-100.00,West,272,12.0,21.0,52,0.00,,,0.00,767.000000,,2013-06-15 15:52:00,
2013-06-15 10:11:00,48.0,31.0,-100.00,West,272,12.0,21.0,52,0.00,,,0.00,767.000000,,2013-06-15 16:11:00,
2013-06-15 10:22:00,48.0,31.0,-100.00,West,272,12.0,21.0,52,0.00,,,0.00,767.000000,,2013-06-15 16:22:00,
2013-06-15 10:33:00,48.0,31.0,-100.00,West,272,12.0,21.0,52,0.00,,,0.00,767.000000,,2013-06-15 16:33:00,
2013-06-15 10:43:00,48.0,31.0,-100.00,West,272,12.0,21.0,52,0.00,,,0.00,767.000000,,2013-06-15 16:43:00,
2013-06-15 10:52:00,50.0,33.0,-100.00,WSW,250,8.0,21.0,51,0.00,,,0.00,941.000000,,2013-06-15 16:52:00,
2013-06-15 11:12:00,50.0,33.0,-100.00,WSW,250,8.0,21.0,51,0.00,,,0.00,941.000000,,2013-06-15 17:12:00,
2013-06-15 11:21:00,50.0,33.0,-100.00,WSW,250,8.0,21.0,51,0.00,,,0.00,941.000000,,2013-06-15 17:21:00,
2013-06-15 11:32:00,50.0,33.0,-100.00,WSW,250,8.0,21.0,51,0.00,,,0.00,941.000000,,2013-06-15 17:32:00,
2013-06-15 11:43:00,50.0,33.0,-100.00,WSW,250,8.0,21.0,51,0.00,,,0.00,941.000000,,2013-06-15 17:43:00,
2013-06-15 11:52:00,52.0,31.0,-100.00,WSW,241,10.0,22.0,45,0.00,,,0.00,1059.000000,,2013-06-15 17:52:00,
2013-06-15 12:12:00,52.0,31.0,-100.00,WSW,241,10.0,22.0,45,0.00,,,0.00,1059.000000,,2013-06-15 18:12:00,
2013-06-15 12:22:00,52.0,31.0,-100.00,WSW,241,10.0,22.0,45,0.00,,,0.00,1059.000000,,2013-06-15 18:22:00,
2013-06-15 12:32:00,52.0,31.0,-100.00,WSW,241,10.0,22.0,45,0.00,,,0.00,1059.000000,,2013-06-15 18:32:00,
2013-06-15 12:43:00,52.0,31.0,-100.00,WSW,241,10.0,22.0,45,0.00,,,0.00,1059.000000,,2013-06-15 18:43:00,
2013-06-15 12:52:00,54.0,32.0,-100.00,SW,228,12.0,23.0,43,0.00,,,0.00,1164.000000,,2013-06-15 18:52:00,
2013-06-15 13:11:00,54.0,32.0,-100.00,SW,228,12.0,23.0,43,0.00,,,0.00,1164.000000,,2013-06-15 19:11:00,
2013-06-15 13:22:00,54.0,32.0,-100.00,SW,228,12.0,23.0,43,0.00,,,0.00,1164.000000,,2013-06-15 19:22:00,
2013-06-15 13:33:00,54.0,32.0,-100.00,SW,228,12.0,23.0,43,0.00,,,0.00,1164.000000,,2013-06-15 19:33:00,
2013-06-15 13:43:00,54.0,32.0,-100.00,SW,228,12.0,23.0,43,0.00,,,0.00,1164.000000,,2013-06-15 19:43:00,
2013-06-15 13:52:00,58.0,34.0,-100.00,West,262,11.0,21.0,40,0.00,,,0.00,1192.000000,,2013-06-15 19:52:00,
2013-06-15 14:11:00,58.0,34.0,-100.00,West,262,11.0,21.0,40,0.00,,,0.00,1192.000000,,2013-06-15 20:11:00,
2013-06-15 14:22:00,58.0,34.0,-100.00,West,262,11.0,21.0,40,0.00,,,0.00,1192.000000,,2013-06-15 20:22:00,
2013-06-15 14:33:00,58.0,34.0,-100.00,West,262,11.0,21.0,40,0.00,,,0.00,1192.000000,,2013-06-15 20:33:00,
2013-06-15 14:43:00,58.0,34.0,-100.00,West,262,11.0,21.0,40,0.00,,,0.00,1192.000000,,2013-06-15 20:43:00,
2013-06-15 14:52:00,57.0,31.0,-100.00,West,265,14.0,26.0,37,0.00,,,0.00,1159.000000,,2013-06-15 20:52:00,
2013-06-15 15:12:00,57.0,31.0,-100.00,West,265,14.0,26.0,37,0.00,,,0.00,1159.000000,,2013-06-15 21:12:00,
2013-06-15 15:22:00,57.0,31.0,-100.00,West,265,14.0,26.0,37,0.00,,,0.00,1159.000000,,2013-06-15 21:22:00,
2013-06-15 15:33:00,57.0,31.0,-100.00,West,265,14.0,26.0,37,0.00,,,0.00,1159.000000,,2013-06-15 21:33:00,
2013-06-15 15:42:00,57.0,31.0,-100.00,West,265,14.0,26.0,37,0.00,,,0.00,1159.000000,,2013-06-15 21:42:00,
2013-06-15 15:52:00,59.0,27.0,-100.00,West,266,15.0,28.0,29,0.00,,,0.00,1068.000000,,2013-06-15 21:52:00,
2013-06-15 16:11:00,59.0,27.0,-100.00,West,266,15.0,28.0,29,0.00,,,0.00,1068.000000,,2013-06-15 22:11:00,
2013-06-15 16:22:00,59.0,27.0,-100.00,West,266,15.0,28.0,29,0.00,,,0.00,1068.000000,,2013-06-15 22:22:00,
2013-06-15 16:32:00,59.0,27.0,-100.00,West,266,15.0,28.0,29,0.00,,,0.00,1068.000000,,2013-06-15 22:32:00,
2013-06-15 16:42:00,59.0,27.0,-100.00,West,266,15.0,28.0,29,0.00,,,0.00,1068.000000,,2013-06-15 22:42:00,
2013-06-15 16:52:00,60.0,25.0,-100.00,WNW,293,9.0,27.0,26,0.00,,,0.00,927.000000,,2013-06-15 22:52:00,
2013-06-15 17:11:00,60.0,25.0,-100.00,WNW,293,9.0,27.0,26,0.00,,,0.00,927.000000,,2013-06-15 23:11:00,
2013-06-15 17:22:00,60.0,25.0,-100.00,WNW,293,9.0,27.0,26,0.00,,,0.00,927.000000,,2013-06-15 23:22:00,
2013-06-15 17:33:00,60.0,25.0,-100.00,WNW,293,9.0,27.0,26,0.00,,,0.00,927.000000,,2013-06-15 23:33:00,
2013-06-15 17:42:00,60.0,25.0,-100.00,WNW,293,9.0,27.0,26,0.00,,,0.00,927.000000,,2013-06-15 23:42:00,
2013-06-15 17:52:00,59.0,28.0,-100.00,WNW,300,9.0,16.0,31,0.00,,,0.00,741.000000,,2013-06-15 23:52:00,
2013-06-15 18:11:00,59.0,28.0,-100.00,WNW,300,9.0,16.0,31,0.00,,,0.00,741.000000,,2013-06-16 00:11:00,
2013-06-15 18:22:00,59.0,28.0,-100.00,WNW,300,9.0,16.0,31,0.00,,,0.00,741.000000,,2013-06-16 00:22:00,
2013-06-15 18:33:00,59.0,28.0,-100.00,WNW,300,9.0,16.0,31,0.00,,,0.00,741.000000,,2013-06-16 00:33:00,
2013-06-15 18:43:00,59.0,28.0,-100.00,WNW,300,9.0,16.0,31,0.00,,,0.00,741.000000,,2013-06-16 00:43:00,
2013-06-15 18:52:00,60.0,30.0,-100.00,West,264,7.0,18.0,32,0.00,,,0.00,536.000000,,2013-06-16 00:52:00,
2013-06-15 19:11:00,60.0,30.0,-100.00,West,264,7.0,18.0,32,0.00,,,0.00,536.000000,,2013-06-16 01:11:00,
2013-06-15 19:22:00,60.0,30.0,-100.00,West,264,7.0,18.0,32,0.00,,,0.00,536.000000,,2013-06-16 01:22:00,
2013-06-15 19:33:00,60.0,30.0,-100.00,West,264,7.0,18.0,32,0.00,,,0.00,536.000000,,2013-06-16 01:33:00,
2013-06-15 19:42:00,60.0,30.0,-100.00,West,264,7.0,18.0,32,0.00,,,0.00,536.000000,,2013-06-16 01:42:00,
2013-06-15 19:52:00,59.0,28.0,-100.00,NW,316,9.0,18.0,31,0.00,,,0.00,174.000000,,2013-06-16 01:52:00,
2013-06-15 20:12:00,59.0,28.0,-100.00,NW,316,9.0,18.0,31,0.00,,,0.00,174.000000,,2013-06-16 02:12:00,
2013-06-15 20:22:00,59.0,28.0,-100.00,NW,316,9.0,18.0,31,0.00,,,0.00,174.000000,,2013-06-16 02:22:00,
2013-06-15 20:33:00,59.0,28.0,-100.00,NW,316,9.0,18.0,31,0.00,,,0.00,174.000000,,2013-06-16 02:33:00,
2013-06-15 20:43:00,59.0,28.0,-100.00,NW,316,9.0,18.0,31,0.00,,,0.00,174.000000,,2013-06-16 02:43:00,
2013-06-15 20:52:00,56.0,28.0,-100.00,NW,325,11.0,16.0,34,0.00,,,0.00,26.000000,,2013-06-16 02:52:00,
2013-06-15 21:12:00,56.0,28.0,-100.00,NW,325,11.0,16.0,34,0.00,,,0.00,26.000000,,2013-06-16 03:12:00,
2013-06-15 21:22:00,56.0,28.0,-100.00,NW,325,11.0,16.0,34,0.00,,,0.00,26.000000,,2013-06-16 03:22:00,
2013-06-15 21:33:00,56.0,28.0,-100.00,NW,325,11.0,16.0,34,0.00,,,0.00,26.000000,,2013-06-16 03:33:00,
2013-06-15 21:43:00,56.0,28.0,-100.00,NW,325,11.0,16.0,34,0.00,,,0.00,26.000000,,2013-06-16 03:43:00,
2013-06-15 21:52:00,54.0,28.0,-100.00,SSW,194,9.0,15.0,36,-99.99,,,0.00,8.000000,,2013-06-16 03:52:00,
2013-06-15 22:12:00,54.0,28.0,-100.00,SSW,194,9.0,15.0,36,-99.99,,,0.00,8.000000,,2013-06-16 04:12:00,
2013-06-15 22:23:00,54.0,28.0,-100.00,SSW,194,9.0,15.0,36,-99.99,,,0.00,8.000000,,2013-06-16 04:23:00,
2013-06-15 22:33:00,54.0,28.0,-100.00,SSW,194,9.0,15.0,36,-99.99,,,0.00,8.000000,,2013-06-16 04:33:00,
2013-06-15 22:42:00,54.0,28.0,-100.00,SSW,194,9.0,15.0,36,-99.99,,,0.00,8.000000,,2013-06-16 04:42:00,